This is the latest recevied weather packets stored in our database for station/object KO4MMQ-10. If no packets are shown the sender has not sent any weather packets the latest 10 day(s).
| Time | Temp. | Humidity | Pressure | Rain* | Wind** | Luminosity | Snow |
|---|---|---|---|---|---|---|---|
| 1777793309 | 7.78° C | 87% | 1020 hPa | 0 mm | - | - | - |
| 1777791508 | 7.78° C | 85% | 1019.9 hPa | 0 mm | - | - | - |
| 1777790308 | 8.33° C | 82% | 1019.7 hPa | 0 mm | - | - | - |
| 1777786708 | 10.56° C | 74% | 1019.9 hPa | 0 mm | - | - | - |
| 1777786108 | 10.56° C | 72% | 1019.8 hPa | 0 mm | - | - | - |
| 1777784908 | 11.11° C | 71% | 1019.6 hPa | 0 mm | - | - | - |
| 1777784308 | 11.11° C | 71% | 1019.6 hPa | 0 mm | - | - | - |
| 1777783708 | 11.11° C | 69% | 1019.7 hPa | 0 mm | - | - | - |
| 1777782508 | 11.67° C | 67% | 1019.5 hPa | 0 mm | - | - | - |
| 1777781908 | 12.22° C | 66% | 1019.4 hPa | 0 mm | - | - | - |
| 1777780708 | 12.22° C | 63% | 1019.3 hPa | 0 mm | - | - | - |
| 1777780108 | 12.78° C | 62% | 1019.2 hPa | 0 mm | - | - | - |
| 1777779508 | 12.78° C | 61% | 1019.2 hPa | 0 mm | - | - | - |
| 1777778908 | 13.33° C | 60% | 1019.2 hPa | 0 mm | - | - | - |
| 1777778308 | 13.33° C | 60% | 1019.2 hPa | 0 mm | - | - | - |
| 1777777708 | 13.33° C | 58% | 1019.2 hPa | 0 mm | - | - | - |
| 1777777108 | 13.33° C | 57% | 1018.9 hPa | 0 mm | - | - | - |
| 1777776508 | 12.78° C | 58% | 1018.8 hPa | 0 mm | - | - | - |
| 1777775908 | 12.78° C | 60% | 1018.6 hPa | 0 mm | - | - | - |
| 1777771708 | 15° C | 49% | 1017.7 hPa | 0 mm | - | - | - |
| 1777770508 | 16.11° C | 46% | 1017.3 hPa | 0 mm | - | - | - |
| 1777769308 | 17.22° C | 44% | 1017.1 hPa | 0 mm | - | - | - |
| 1777768709 | 17.78° C | 42% | 1017.1 hPa | 0 mm | - | - | - |
| 1777767508 | 18.33° C | 42% | 1016.8 hPa | 0 mm | - | - | - |
| 1777766908 | 18.89° C | 39% | 1016.5 hPa | 0 mm | - | - | - |
* Rain latest hour (hover to see other rain measurements)
** Current wind speed in m/s (hover to see current wind gust speed)